User: anonymous   Login
Location: Ertinghausen
(51.6624°N, 9.7874°E)
Time: 21:43:17
(UTC+00:00)
Language:

FENGYUN 3A - Orbit

View from above orbital plane
View from above orbital plane
View from above satellite
View from above satellite

Ground track
Ground track

The orbit data is extracted from the following two-line orbital elements,

1 32958U 08026A   24206.40109506  .00000399  00000-0  21115-3 0  9996
2 32958  98.6051 152.4481 0008217 332.6710  27.4033 14.19129272837121
Epoch (UTC): 24 July 2024 09:37:34
Eccentricity: 0.0008217
inclination: 98.6051°
perigee height: 822 km
apogee height: 834 km
right ascension of ascending node: 152.4481°
argument of perigee: 332.6710°
revolutions per day: 14.19129272
mean anomaly at epoch: 27.4033°
orbit number at epoch: 83712

The dashed part of the orbit path shows where the satellite is in the earth's shadow,  

DLR